SCP
0 0 0 0 -0 -0 -0 -0 -0 -0 -0 -0 -0 -0 -0 -0 -0 -0 -0 -0 -0 -0 -0 -0 -0 -0 -0 0 -0 0 -0 -0 -0 -0 0 -0 -0 -0 -0 0 -0 -0 -0
0 0 -0 0 -0 -0 -0 -0 0 0 -0 -0 -0 -0 -0 -0 -0 -0 -0 -0 -0 -0 -0 -0 -0 -0 -0 -0 -0 0 0 -0 0 -0 0 0 0 -0 -0 -0 -0 0 0
0 -0 0 0 -0 -0 -0 -0 0 -0 -0 0 -0 -0 -0 -0 -0 -0 -0 -0 -0 -0 -0 -0 0 -0 0 -0 -0 -0 -0 -0 0 -0 -0 0 0 -0 -0 -0 -0 -0 0
-0 -0 0 0 0 -0 -0 0 0 -0 -0 -0 -0 -0 -0 -0 -0 -0 -0 -0 0 -0 -0 0 0 0 0 -0 0 -0 -0 -0 -0 -0 0 0 0 -0 -0 -0 -0 -0 0
-0 -0 -0 -0 -0 -0 -0 -0 0 -0 -0 0 -0 -0 0 0 0 0 -0 0 0 0 0 0 -0 -0 -0 -0 -0 -0 0 0 0 -0 -0 0 0 -0 -0 -0 -0 -0 -0
-0 -0 -0 -0 0 0 -0 0 0 0 0 0 0 0 0 0 0 0 0 0 0 0 0 0 -0 -0 -0 -0 -0 -0 -0 -0 -0 -0 0 0 -0 -0 -0 -0 -0 -0 -0
0 -0 -0 -0 0 0 0 0 0 0 0 0 0 0 -0 -0 -0 -0 -0 0 -0 -0 -0 0 -0 -0 -0 -0 0 -0 -0 -0 -0 0 -0 -0 -0 -0 -0 -0 -0 -0 -0
0 -0 -0 -0 0 0 0 0 0 -0 -0 -0 -0 -0 -0 -0 -0 0 0 0 0 0 0 0 0 0 -0 -0 0 -0 -0 -0 -0 -0 0 -0 -0 -0 -0 -0 -0 -0 -0
0 -0 -0 -0 0 0 0 0 0 -0 0 0 -0 0 0 0 0 0 0 0 0 0 0 0 0 0 -0 -0 -0 -0 0 -0 0 0 0 0 -0 -0 -0 -0 -0 -0 -0
-0 0 -0 -0 -0 -0 -0 0 0 -0 0 -0 0 0 0 0 0 0 0 0 0 0 0 0 0 0 0 -0 -0 -1 -0 0 0 0 0 0 -0 -0 -0 -0 -0 -0 0
0 0 -0 -0 0 0 -0 -0 0 -0 -0 0 0 0 0 0 0 0 0 0 0 0 0 0 0 0 0 0 -0 -1 -1 0 0 0 0 -0 -0 -0 -0 -0 -0 0 0
0 0 0 0 -0 -0 -0 -0 -0 -0 0 0 0 0 0 0 0 0 0 0 0 0 0 1 0 0 0 0 0 0 0 0 0 0 0 -0 -0 -0 -0 0 0 0 0
-0 0 0 0 -0 -0 -0 -0 -0 0 0 0 0 0 0 0 0 0 0 0 1 0 1 1 1 1 0 1 1 0 0 0 0 0 0 0 -0 -0 0 0 0 0 0
-0 -0 0 -0 -0 0 0 0 0 0 0 0 0 0 0 0 0 0 0 0 1 0 0 0 1 0 0 0 0 0 0 0 0 0 0 0 0 0 0 0 0 0 0
-0 -0 0 0 0 -0 -0 -0 0 0 0 0 0 0 0 0 0 0 0 0 0 0 0 0 0 0 0 0 0 0 0 0 0 0 0 0 0 0 0 0 0 0 0
0 -0 -0 0 0 -0 -0 -0 0 0 0 0 0 0 0 0 0 0 -0 0 0 0 0 0 0 0 0 0 0 0 0 0 0 0 0 0 0 1 1 1 0 0 0
0 -0 -0 0 0 0 -0 -0 0 0 0 -0 0 0 0 0 0 -0 0 0 0 0 0 0 0 0 -0 0 0 0 0 0 0 0 0 0 0 0 1 1 1 1 1
-0 -0 -0 -0 0 0 -0 -0 -0 -0 0 -0 -0 0 0 0 0 -0 0 0 0 0 -0 0 0 0 0 0 0 0 0 0 0 0 0 0 0 0 0 0 1 1 1
-0 -0 -0 -0 -0 0 -0 -0 -0 -0 -0 -0 -0 0 0 0 0 0 -0 -0 0 0 0 0 0 0 0 0 0 0 0 0 0 0 0 0 0 0 0 0 0 1 1
-0 -0 -0 -0 -0 -0 0 -0 -0 -0 0 0 -0 0 0 -0 0 0 0 0 -0 0 0 0 0 0 0 0 0 0 0 0 0 0 0 0 0 0 0 0 1 1 1
-0 -0 -0 -0 -0 -0 0 -0 -0 0 0 0 -0 -0 0 0 0 -0 0 -0 0 0 0 1 1 0 0 0 0 0 0 0 0 0 0 0 0 0 0 0 0 0 0
-1 -1 -0 -0 -1 -0 -0 -0 0 -0 0 0 -0 -0 -0 0 0 0 0 0 0 0 1 1 1 0 0 0 0 0 0 0 0 0 0 0 0 0 0 0 0 0 0
-1 -1 -0 -0 -0 -0 -0 -0 0 -0 -0 -0 0 0 0 0 0 0 0 0 0 0 0 1 1 0 0 0 0 0 0 0 0 0 0 0 0 0 0 0 0 0 0
-1 -1 -1 -1 -0 -0 -0 -0 -0 -0 -0 0 0 -0 0 -0 0 0 0 0 1 0 0 1 0 0 0 0 0 0 0 0 0 0 0 0 0 0 0 0 0 0 0
-1 -1 -1 -1 -1 -1 -0 -0 -0 -0 -0 0 0 -0 0 0 0 0 1 0 1 1 2 1 0 0 0 0 0 0 0 0 0 0 0 0 0 0 0 0 0 0 0
-1 -2 -2 -2 -1 -1 -1 -1 -0 -0 -0 -0 0 -0 0 0 0 0 0 1 1 2 2 1 1 0 0 0 0 0 0 0 0 0 0 0 0 0 0 0 0 0 0
Wind_Speed_500mb
35 34 38 40 37 38 37 37 37 35 33 32 33 33 32 30 29 28 27 27 27 25 25 24 22 19 21 22 23 24 28 29 29 29 24 21 17 23 26 24 20 12 16
39 37 39 36 34 36 37 37 36 35 34 33 31 27 25 26 29 27 24 25 27 26 23 22 21 23 24 26 29 28 29 29 30 30 33 26 19 12 12 18 13 8 14
42 40 42 35 33 33 34 33 33 32 32 29 27 26 26 27 27 26 27 26 28 22 22 22 25 26 25 27 30 31 29 25 21 22 28 26 21 12 6 7 8 11 13
42 41 38 32 29 30 31 28 28 29 29 29 27 26 27 24 22 28 25 25 26 26 25 24 26 27 28 28 30 25 19 22 22 17 20 11 17 13 4 5 9 11 12
30 35 34 31 29 29 27 26 27 27 27 28 23 24 21 25 26 26 23 25 25 24 26 26 24 18 16 19 23 23 21 16 12 12 6 8 14 11 4 5 10 9 11
39 29 33 31 28 28 28 28 28 25 22 21 22 25 27 28 29 28 27 27 28 26 23 20 17 17 16 18 18 12 19 15 3 6 11 2 17 14 9 3 5 5 4
33 33 33 30 30 31 30 30 25 24 24 26 29 29 27 27 28 27 27 25 22 19 15 13 11 10 10 12 13 9 7 10 12 4 7 14 3 15 17 10 3 2 2
27 37 34 31 31 30 28 28 28 28 29 30 30 30 31 29 27 27 26 27 25 19 15 12 11 9 10 10 8 7 2 4 9 10 15 24 8 10 14 13 10 3 2
35 35 33 31 31 30 28 28 31 34 36 36 37 35 32 32 29 30 28 27 27 26 23 19 13 10 10 12 14 10 6 3 14 15 14 37 11 7 10 9 10 7 2
26 32 32 30 29 28 29 29 34 38 39 36 30 28 26 27 31 31 27 26 24 24 17 13 14 11 11 15 18 21 25 16 12 22 25 23 12 3 9 12 14 11 6
26 25 29 28 27 29 29 32 38 39 35 25 19 18 17 19 15 23 21 24 21 22 18 21 23 22 18 19 20 18 19 13 8 21 20 20 3 9 10 16 19 17 12
34 25 22 26 24 27 30 34 31 27 21 13 18 16 14 15 12 23 19 16 24 24 31 30 28 26 21 17 15 20 11 10 16 24 22 22 19 16 14 16 20 22 22
36 32 20 22 27 29 27 22 24 20 18 10 9 6 15 12 11 15 9 14 12 20 28 23 24 27 23 17 20 21 20 23 16 20 26 19 23 23 18 22 24 24 24
40 40 31 26 28 23 18 13 12 9 10 8 9 20 10 16 14 8 17 14 11 15 17 14 22 24 25 21 14 15 24 23 14 17 22 23 30 16 19 24 29 26 21
49 46 44 31 37 36 29 20 18 17 12 9 0 7 2 5 7 6 8 13 11 15 18 11 11 20 27 19 23 24 26 26 17 24 18 22 21 25 21 27 25 25 26
50 54 44 39 41 38 35 36 30 29 25 12 4 5 7 3 4 20 11 14 15 12 10 18 21 19 19 18 18 28 21 25 21 22 26 27 28 25 25 28 26 25 29
51 61 50 45 38 48 49 47 42 40 25 15 14 11 11 6 9 15 7 13 10 9 15 9 7 10 18 10 12 20 30 24 22 17 19 19 19 24 23 27 22 24 28
55 58 45 42 37 48 50 48 36 38 31 20 15 16 19 8 9 8 6 3 5 4 6 7 13 21 14 17 25 31 24 18 15 19 21 29 27 14 15 15 18 25 27
61 59 51 44 35 38 44 47 39 37 33 28 26 20 25 13 6 11 3 5 3 12 8 14 19 20 19 22 29 30 22 8 10 17 15 23 10 16 6 17 28 29 28
64 59 57 46 39 31 30 35 36 33 32 27 31 15 20 10 13 12 13 10 8 13 11 20 25 19 18 27 28 31 21 6 11 12 14 12 18 24 21 20 34 29 34
65 64 61 55 48 43 42 39 39 37 28 23 36 23 30 25 27 16 30 19 12 12 18 24 24 18 19 25 28 33 21 15 11 19 16 6 22 16 25 39 34 36 40
68 63 62 59 60 56 52 45 37 33 29 19 29 29 25 37 36 33 40 30 19 21 29 31 29 25 24 26 24 20 15 17 19 16 7 10 20 30 27 28 28 32 39
66 65 65 63 65 68 59 52 40 29 27 35 33 29 37 46 41 35 39 38 33 37 31 32 28 30 29 31 20 19 10 11 36 28 29 16 33 31 32 35 39 40 31
75 72 68 63 61 68 64 57 51 49 47 47 43 36 40 39 39 38 30 33 37 35 33 32 34 32 31 35 29 23 24 28 30 22 32 39 40 37 36 37 38 43 32
78 75 70 62 62 62 62 60 56 53 54 47 51 47 47 42 41 35 36 30 32 35 38 38 39 34 31 35 31 31 27 16 21 27 30 42 42 46 52 47 30 34 31
80 76 73 70 65 63 63 61 63 58 51 54 54 50 43 41 46 43 43 44 39 39 41 40 38 37 32 31 26 26 21 24 27 28 33 39 40 47 49 53 49 35 37
Wind_Direction_500mb
125 120 119 115 105 102 101 104 107 109 109 108 109 109 101 95 96 97 101 101 101 108 112 115 118 114 122 129 128 125 122 117 116 113 104 97 99 117 117 109 92 109 117
124 125 124 120 113 107 104 104 104 108 108 108 106 100 95 96 96 96 101 107 105 107 112 114 115 112 114 118 116 114 121 113 103 102 79 82 91 96 117 115 100 112 114
131 130 128 125 116 113 112 106 106 108 109 109 106 104 102 102 97 95 99 110 112 113 109 111 114 108 104 105 108 107 104 100 95 92 64 52 59 70 70 97 98 112 105
133 132 129 126 122 116 118 113 109 110 111 107 106 104 103 101 93 103 102 106 114 107 103 109 108 108 106 100 108 121 117 106 106 105 83 65 52 38 48 88 111 107 104
127 138 136 130 128 124 124 118 117 116 114 111 110 106 99 94 96 99 98 100 106 110 109 104 98 100 97 102 117 131 137 118 98 80 137 132 44 26 57 130 121 119 123
156 148 139 135 132 130 126 123 118 115 116 112 108 105 106 97 95 99 101 105 104 108 105 102 103 90 91 90 111 139 133 133 50 117 168 80 31 26 43 79 129 124 143
160 156 141 137 132 125 123 122 115 113 113 113 111 105 103 98 95 97 95 97 99 100 101 103 98 79 62 64 80 134 137 103 80 46 230 203 336 29 34 29 60 111 141
157 152 145 139 133 129 128 122 118 108 105 103 99 91 87 85 85 84 84 84 77 75 72 61 58 50 42 48 67 111 98 335 338 13 214 193 253 5 18 27 22 25 168
154 152 144 140 136 134 130 122 112 105 102 101 96 92 91 83 81 78 73 69 64 68 72 75 69 65 75 71 64 56 34 317 352 359 199 210 222 331 359 22 0 12 341
160 151 145 138 135 134 128 119 112 107 105 105 101 100 81 81 77 70 73 70 67 49 48 47 50 58 69 54 41 27 32 36 292 315 283 211 263 226 343 353 335 327 321
160 142 144 141 136 131 128 122 120 115 114 109 107 109 93 79 83 66 60 71 59 49 32 34 32 33 50 44 26 5 27 359 297 351 353 189 188 311 316 347 323 305 302
166 156 155 143 133 130 129 124 118 111 109 102 91 84 109 107 74 42 47 62 53 54 40 41 22 34 32 12 11 14 359 349 325 331 338 321 310 270 292 329 326 307 285
168 164 166 147 132 143 127 127 116 120 106 92 79 87 102 123 93 52 81 42 47 47 43 33 15 14 18 34 12 16 358 348 297 303 307 314 276 289 303 316 323 324 294
179 181 183 171 158 179 169 130 111 127 112 112 118 146 127 97 46 44 93 33 29 61 46 22 31 48 32 11 352 345 352 332 316 342 316 317 317 284 307 308 315 315 305
186 183 183 187 186 187 177 188 233 202 178 183 216 148 358 175 103 150 101 42 30 96 46 48 15 26 28 25 3 351 344 347 358 331 326 327 342 327 332 335 305 308 314
178 186 194 194 193 180 188 196 187 174 190 189 208 250 300 257 189 143 100 36 107 69 71 39 34 29 21 356 347 349 330 330 324 309 315 315 307 321 322 317 313 312 311
181 188 195 205 209 202 191 198 197 192 188 198 190 241 297 346 133 138 99 104 92 74 46 45 39 325 310 336 343 348 335 340 348 27 343 330 313 311 309 313 320 306 300
180 191 207 219 224 211 204 205 209 204 200 205 223 249 270 305 178 200 31 359 15 139 267 276 318 351 29 16 2 358 338 339 343 350 13 20 17 7 357 307 307 309 304
197 203 212 222 230 204 208 214 217 210 206 205 200 223 243 258 204 206 66 271 353 171 267 283 310 349 13 9 359 356 346 358 331 352 347 343 351 341 310 296 314 310 301
203 205 210 217 230 227 223 223 221 216 223 207 194 212 240 240 237 250 223 266 312 227 294 293 299 341 348 351 351 358 359 318 248 268 293 326 301 312 305 312 311 318 315
205 203 201 206 219 224 226 225 223 222 218 210 195 206 231 224 235 249 219 226 256 265 265 280 297 314 326 336 336 351 22 317 189 317 286 291 326 330 316 325 329 313 309
198 203 206 213 218 224 230 231 229 230 220 182 192 203 228 237 254 268 252 225 228 239 259 277 293 296 317 333 325 332 338 330 275 335 317 332 330 332 325 319 315 317 320
206 212 218 222 219 222 228 233 232 211 214 214 223 218 234 247 255 262 257 246 235 241 259 273 280 300 311 326 308 303 294 265 313 334 344 304 307 311 312 306 305 308 309
211 219 226 227 222 222 224 227 223 217 215 211 220 231 231 233 249 273 271 267 257 249 258 260 276 291 302 318 309 298 287 298 318 315 305 308 310 321 326 324 309 313 321
212 218 225 229 228 226 224 226 225 222 225 218 223 222 230 247 257 264 264 271 259 247 249 259 267 278 291 314 306 310 311 289 300 320 327 317 322 332 331 328 335 321 315
211 217 223 228 232 230 227 222 224 227 224 223 226 227 230 234 248 244 266 275 269 249 251 255 265 272 284 313 311 305 304 304 305 318 319 319 319 323 327 328 323 338 331
Wind_Speed_850mb
35 34 38 40 37 38 37 37 37 35 33 32 33 33 32 30 29 28 27 27 27 25 25 24 22 19 21 22 23 24 28 29 29 29 24 21 17 23 26 24 20 12 16
39 37 39 36 34 36 37 37 36 35 34 33 31 27 25 26 29 27 24 25 27 26 23 22 21 23 24 26 29 28 29 29 30 30 33 26 19 12 12 18 13 8 14
42 40 42 35 33 33 34 33 33 32 32 29 27 26 26 27 27 26 27 26 28 22 22 22 25 26 25 27 30 31 29 25 21 22 28 26 21 12 6 7 8 11 13
42 41 38 32 29 30 31 28 28 29 29 29 27 26 27 24 22 28 25 25 26 26 25 24 26 27 28 28 30 25 19 22 22 17 20 11 17 13 4 5 9 11 12
30 35 34 31 29 29 27 26 27 27 27 28 23 24 21 25 26 26 23 25 25 24 26 26 24 18 16 19 23 23 21 16 12 12 6 8 14 11 4 5 10 9 11
39 29 33 31 28 28 28 28 28 25 22 21 22 25 27 28 29 28 27 27 28 26 23 20 17 17 16 18 18 12 19 15 3 6 11 2 17 14 9 3 5 5 4
33 33 33 30 30 31 30 30 25 24 24 26 29 29 27 27 28 27 27 25 22 19 15 13 11 10 10 12 13 9 7 10 12 4 7 14 3 15 17 10 3 2 2
27 37 34 31 31 30 28 28 28 28 29 30 30 30 31 29 27 27 26 27 25 19 15 12 11 9 10 10 8 7 2 4 9 10 15 24 8 10 14 13 10 3 2
35 35 33 31 31 30 28 28 31 34 36 36 37 35 32 32 29 30 28 27 27 26 23 19 13 10 10 12 14 10 6 3 14 15 14 37 11 7 10 9 10 7 2
26 32 32 30 29 28 29 29 34 38 39 36 30 28 26 27 31 31 27 26 24 24 17 13 14 11 11 15 18 21 25 16 12 22 25 23 12 3 9 12 14 11 6
26 25 29 28 27 29 29 32 38 39 35 25 19 18 17 19 15 23 21 24 21 22 18 21 23 22 18 19 20 18 19 13 8 21 20 20 3 9 10 16 19 17 12
34 25 22 26 24 27 30 34 31 27 21 13 18 16 14 15 12 23 19 16 24 24 31 30 28 26 21 17 15 20 11 10 16 24 22 22 19 16 14 16 20 22 22
36 32 20 22 27 29 27 22 24 20 18 10 9 6 15 12 11 15 9 14 12 20 28 23 24 27 23 17 20 21 20 23 16 20 26 19 23 23 18 22 24 24 24
40 40 31 26 28 23 18 13 12 9 10 8 9 20 10 16 14 8 17 14 11 15 17 14 22 24 25 21 14 15 24 23 14 17 22 23 30 16 19 24 29 26 21
49 46 44 31 37 36 29 20 18 17 12 9 0 7 2 5 7 6 8 13 11 15 18 11 11 20 27 19 23 24 26 26 17 24 18 22 21 25 21 27 25 25 26
50 54 44 39 41 38 35 36 30 29 25 12 4 5 7 3 4 20 11 14 15 12 10 18 21 19 19 18 18 28 21 25 21 22 26 27 28 25 25 28 26 25 29
51 61 50 45 38 48 49 47 42 40 25 15 14 11 11 6 9 15 7 13 10 9 15 9 7 10 18 10 12 20 30 24 22 17 19 19 19 24 23 27 22 24 28
55 58 45 42 37 48 50 48 36 38 31 20 15 16 19 8 9 8 6 3 5 4 6 7 13 21 14 17 25 31 24 18 15 19 21 29 27 14 15 15 18 25 27
61 59 51 44 35 38 44 47 39 37 33 28 26 20 25 13 6 11 3 5 3 12 8 14 19 20 19 22 29 30 22 8 10 17 15 23 10 16 6 17 28 29 28
64 59 57 46 39 31 30 35 36 33 32 27 31 15 20 10 13 12 13 10 8 13 11 20 25 19 18 27 28 31 21 6 11 12 14 12 18 24 21 20 34 29 34
65 64 61 55 48 43 42 39 39 37 28 23 36 23 30 25 27 16 30 19 12 12 18 24 24 18 19 25 28 33 21 15 11 19 16 6 22 16 25 39 34 36 40
68 63 62 59 60 56 52 45 37 33 29 19 29 29 25 37 36 33 40 30 19 21 29 31 29 25 24 26 24 20 15 17 19 16 7 10 20 30 27 28 28 32 39
66 65 65 63 65 68 59 52 40 29 27 35 33 29 37 46 41 35 39 38 33 37 31 32 28 30 29 31 20 19 10 11 36 28 29 16 33 31 32 35 39 40 31
75 72 68 63 61 68 64 57 51 49 47 47 43 36 40 39 39 38 30 33 37 35 33 32 34 32 31 35 29 23 24 28 30 22 32 39 40 37 36 37 38 43 32
78 75 70 62 62 62 62 60 56 53 54 47 51 47 47 42 41 35 36 30 32 35 38 38 39 34 31 35 31 31 27 16 21 27 30 42 42 46 52 47 30 34 31
80 76 73 70 65 63 63 61 63 58 51 54 54 50 43 41 46 43 43 44 39 39 41 40 38 37 32 31 26 26 21 24 27 28 33 39 40 47 49 53 49 35 37
Wind_Direction_850mb
125 120 119 115 105 102 101 104 107 109 109 108 109 109 101 95 96 97 101 101 101 108 112 115 118 114 122 129 128 125 122 117 116 113 104 97 99 117 117 109 92 109 117
124 125 124 120 113 107 104 104 104 108 108 108 106 100 95 96 96 96 101 107 105 107 112 114 115 112 114 118 116 114 121 113 103 102 79 82 91 96 117 115 100 112 114
131 130 128 125 116 113 112 106 106 108 109 109 106 104 102 102 97 95 99 110 112 113 109 111 114 108 104 105 108 107 104 100 95 92 64 52 59 70 70 97 98 112 105
133 132 129 126 122 116 118 113 109 110 111 107 106 104 103 101 93 103 102 106 114 107 103 109 108 108 106 100 108 121 117 106 106 105 83 65 52 38 48 88 111 107 104
127 138 136 130 128 124 124 118 117 116 114 111 110 106 99 94 96 99 98 100 106 110 109 104 98 100 97 102 117 131 137 118 98 80 137 132 44 26 57 130 121 119 123
156 148 139 135 132 130 126 123 118 115 116 112 108 105 106 97 95 99 101 105 104 108 105 102 103 90 91 90 111 139 133 133 50 117 168 80 31 26 43 79 129 124 143
160 156 141 137 132 125 123 122 115 113 113 113 111 105 103 98 95 97 95 97 99 100 101 103 98 79 62 64 80 134 137 103 80 46 230 203 336 29 34 29 60 111 141
157 152 145 139 133 129 128 122 118 108 105 103 99 91 87 85 85 84 84 84 77 75 72 61 58 50 42 48 67 111 98 335 338 13 214 193 253 5 18 27 22 25 168
154 152 144 140 136 134 130 122 112 105 102 101 96 92 91 83 81 78 73 69 64 68 72 75 69 65 75 71 64 56 34 317 352 359 199 210 222 331 359 22 0 12 341
160 151 145 138 135 134 128 119 112 107 105 105 101 100 81 81 77 70 73 70 67 49 48 47 50 58 69 54 41 27 32 36 292 315 283 211 263 226 343 353 335 327 321
160 142 144 141 136 131 128 122 120 115 114 109 107 109 93 79 83 66 60 71 59 49 32 34 32 33 50 44 26 5 27 359 297 351 353 189 188 311 316 347 323 305 302
166 156 155 143 133 130 129 124 118 111 109 102 91 84 109 107 74 42 47 62 53 54 40 41 22 34 32 12 11 14 359 349 325 331 338 321 310 270 292 329 326 307 285
168 164 166 147 132 143 127 127 116 120 106 92 79 87 102 123 93 52 81 42 47 47 43 33 15 14 18 34 12 16 358 348 297 303 307 314 276 289 303 316 323 324 294
179 181 183 171 158 179 169 130 111 127 112 112 118 146 127 97 46 44 93 33 29 61 46 22 31 48 32 11 352 345 352 332 316 342 316 317 317 284 307 308 315 315 305
186 183 183 187 186 187 177 188 233 202 178 183 216 148 358 175 103 150 101 42 30 96 46 48 15 26 28 25 3 351 344 347 358 331 326 327 342 327 332 335 305 308 314
178 186 194 194 193 180 188 196 187 174 190 189 208 250 300 257 189 143 100 36 107 69 71 39 34 29 21 356 347 349 330 330 324 309 315 315 307 321 322 317 313 312 311
181 188 195 205 209 202 191 198 197 192 188 198 190 241 297 346 133 138 99 104 92 74 46 45 39 325 310 336 343 348 335 340 348 27 343 330 313 311 309 313 320 306 300
180 191 207 219 224 211 204 205 209 204 200 205 223 249 270 305 178 200 31 359 15 139 267 276 318 351 29 16 2 358 338 339 343 350 13 20 17 7 357 307 307 309 304
197 203 212 222 230 204 208 214 217 210 206 205 200 223 243 258 204 206 66 271 353 171 267 283 310 349 13 9 359 356 346 358 331 352 347 343 351 341 310 296 314 310 301
203 205 210 217 230 227 223 223 221 216 223 207 194 212 240 240 237 250 223 266 312 227 294 293 299 341 348 351 351 358 359 318 248 268 293 326 301 312 305 312 311 318 315
205 203 201 206 219 224 226 225 223 222 218 210 195 206 231 224 235 249 219 226 256 265 265 280 297 314 326 336 336 351 22 317 189 317 286 291 326 330 316 325 329 313 309
198 203 206 213 218 224 230 231 229 230 220 182 192 203 228 237 254 268 252 225 228 239 259 277 293 296 317 333 325 332 338 330 275 335 317 332 330 332 325 319 315 317 320
206 212 218 222 219 222 228 233 232 211 214 214 223 218 234 247 255 262 257 246 235 241 259 273 280 300 311 326 308 303 294 265 313 334 344 304 307 311 312 306 305 308 309
211 219 226 227 222 222 224 227 223 217 215 211 220 231 231 233 249 273 271 267 257 249 258 260 276 291 302 318 309 298 287 298 318 315 305 308 310 321 326 324 309 313 321
212 218 225 229 228 226 224 226 225 222 225 218 223 222 230 247 257 264 264 271 259 247 249 259 267 278 291 314 306 310 311 289 300 320 327 317 322 332 331 328 335 321 315
211 217 223 228 232 230 227 222 224 227 224 223 226 227 230 234 248 244 266 275 269 249 251 255 265 272 284 313 311 305 304 304 305 318 319 319 319 323 327 328 323 338 331